N60US NZHK-NZQN

Flight info

Callsign N60US
Flight time 0h 45m
Altitude 36000
Route DCT ANDEP DCT SAVLA DCT DOVOT UBDAM6B
Aircraft C25B/M-SDE2E3FGHRWXY/LB1

Departure

Time 2026-05-09 08:10
Airport Hokitika Airfield (NZHK)

Arrival

Time 2026-05-09 08:55
Airport Queenstown Airport (NZQN)
Time Latitude Longitude Altitude Speed Heading
2026-05-09 07:56 -42.71364 170.98465 131 ft 0 kts 242°
2026-05-09 08:06 -42.71365 170.98462 129 ft 4 kts 256°
2026-05-09 08:06 -42.71359 170.98486 133 ft 3 kts 76°
2026-05-09 08:06 -42.71258 170.98542 132 ft 22 kts 12°
2026-05-09 08:07 -42.71160 170.98497 130 ft 0 kts 327°
2026-05-09 08:07 -42.71114 170.98494 126 ft 10 kts 58°
2026-05-09 08:07 -42.71059 170.98612 128 ft 17 kts 59°
2026-05-09 08:07 -42.70983 170.98766 126 ft 21 kts 58°
2026-05-09 08:08 -42.70898 170.98934 124 ft 22 kts 59°
2026-05-09 08:08 -42.70823 170.99117 122 ft 23 kts 60°
2026-05-09 08:08 -42.70758 170.99256 121 ft 4 kts 315°
2026-05-09 08:08 -42.70758 170.99243 120 ft 0 kts 236°
2026-05-09 08:09 -42.70760 170.99240 119 ft 6 kts 237°
2026-05-09 08:10 -42.71023 170.98695 128 ft 133 kts 237°
2026-05-09 08:10 -42.71656 170.97395 795 ft 191 kts 236°
2026-05-09 08:10 -42.72450 170.95765 1363 ft 210 kts 237°
2026-05-09 08:10 -42.73229 170.94084 1897 ft 210 kts 239°
2026-05-09 08:11 -42.74187 170.92592 2500 ft 217 kts 219°
2026-05-09 08:11 -42.75616 170.91387 3449 ft 268 kts 207°
2026-05-09 08:11 -42.76840 170.90761 4080 ft 298 kts 202°
2026-05-09 08:11 -42.79556 170.89332 5932 ft 321 kts 206°
2026-05-09 08:12 -42.83089 170.87415 8472 ft 334 kts 205°
2026-05-09 08:12 -42.85248 170.86221 10022 ft 334 kts 209°
2026-05-09 08:12 -42.87221 170.84603 11483 ft 330 kts 218°
2026-05-09 08:13 -42.88991 170.82650 13007 ft 326 kts 226°
2026-05-09 08:13 -42.90513 170.80388 14442 ft 324 kts 229°
2026-05-09 08:13 -42.92087 170.78034 14987 ft 351 kts 228°
2026-05-09 08:13 -42.93762 170.75477 14998 ft 361 kts 229°
2026-05-09 08:14 -42.95423 170.72961 14998 ft 352 kts 229°
2026-05-09 08:14 -42.97034 170.70526 15496 ft 340 kts 229°
2026-05-09 08:14 -42.98607 170.68124 16367 ft 339 kts 229°
2026-05-09 08:14 -43.00185 170.65731 17279 ft 338 kts 228°
2026-05-09 08:15 -43.01756 170.63339 18170 ft 338 kts 228°
2026-05-09 08:15 -43.03325 170.60954 18987 ft 338 kts 228°
2026-05-09 08:15 -43.04890 170.58562 19831 ft 337 kts 228°
2026-05-09 08:15 -43.06456 170.56177 20696 ft 338 kts 228°
2026-05-09 08:16 -43.08024 170.53786 21582 ft 338 kts 228°
2026-05-09 08:16 -43.09565 170.51426 22491 ft 337 kts 227°
2026-05-09 08:16 -43.11132 170.49034 23410 ft 337 kts 228°
2026-05-09 08:16 -43.12689 170.46637 24212 ft 337 kts 228°
2026-05-09 08:17 -43.14266 170.44259 25046 ft 336 kts 228°
2026-05-09 08:17 -43.15813 170.41863 25905 ft 336 kts 228°
2026-05-09 08:17 -43.17365 170.39481 26789 ft 334 kts 228°
2026-05-09 08:17 -43.18911 170.37104 27705 ft 332 kts 228°
2026-05-09 08:18 -43.20444 170.34758 28645 ft 329 kts 228°
2026-05-09 08:18 -43.21953 170.32412 29617 ft 326 kts 229°
2026-05-09 08:18 -43.23454 170.30110 30466 ft 322 kts 228°
2026-05-09 08:18 -43.24941 170.27839 31327 ft 318 kts 228°
2026-05-09 08:19 -43.26403 170.25602 32220 ft 312 kts 228°
2026-05-09 08:19 -43.27823 170.23382 33031 ft 310 kts 228°
2026-05-09 08:19 -43.29279 170.21133 33708 ft 310 kts 228°
2026-05-09 08:19 -43.30698 170.18945 34283 ft 311 kts 228°
2026-05-09 08:20 -43.32137 170.16723 34880 ft 310 kts 229°
2026-05-09 08:20 -43.33568 170.14507 35492 ft 309 kts 229°
2026-05-09 08:20 -43.34997 170.12291 35962 ft 313 kts 229°
2026-05-09 08:20 -43.36484 170.09986 35965 ft 329 kts 229°
2026-05-09 08:21 -43.38038 170.07578 35979 ft 343 kts 229°
2026-05-09 08:21 -43.39649 170.05077 35985 ft 355 kts 229°
2026-05-09 08:21 -43.41307 170.02497 35984 ft 366 kts 229°
2026-05-09 08:21 -43.43017 169.99843 35980 ft 374 kts 229°
2026-05-09 08:22 -43.46478 169.94452 35976 ft 371 kts 229°
2026-05-09 08:22 -43.49922 169.89282 35984 ft 362 kts 226°
2026-05-09 08:23 -43.53376 169.84377 35966 ft 356 kts 227°
2026-05-09 08:23 -43.56805 169.79492 35968 ft 352 kts 227°
2026-05-09 08:24 -43.60200 169.74654 35885 ft 351 kts 227°
2026-05-09 08:24 -43.61903 169.72230 35508 ft 350 kts 227°
2026-05-09 08:24 -43.63589 169.69818 35132 ft 348 kts 227°
2026-05-09 08:25 -43.65263 169.67422 34761 ft 345 kts 227°
2026-05-09 08:25 -43.66922 169.65047 34399 ft 342 kts 227°
2026-05-09 08:25 -43.68571 169.62689 34038 ft 340 kts 227°
2026-05-09 08:25 -43.70204 169.60346 33669 ft 337 kts 227°
2026-05-09 08:26 -43.71816 169.58032 33282 ft 331 kts 227°
2026-05-09 08:26 -43.73417 169.55735 32876 ft 331 kts 227°
2026-05-09 08:26 -43.75007 169.53450 32480 ft 329 kts 227°
2026-05-09 08:26 -43.76593 169.51169 32082 ft 328 kts 227°
2026-05-09 08:27 -43.78152 169.48926 31698 ft 326 kts 227°
2026-05-09 08:27 -43.79720 169.46665 31311 ft 324 kts 227°
2026-05-09 08:27 -43.81279 169.44416 30940 ft 324 kts 227°
2026-05-09 08:27 -43.82837 169.42172 30564 ft 323 kts 227°
2026-05-09 08:28 -43.84386 169.39932 30204 ft 322 kts 227°
2026-05-09 08:28 -43.85932 169.37700 29819 ft 321 kts 227°
2026-05-09 08:28 -43.87480 169.35462 29287 ft 323 kts 227°
2026-05-09 08:28 -43.89041 169.33198 28723 ft 326 kts 227°
2026-05-09 08:29 -43.90611 169.30926 28181 ft 327 kts 227°
2026-05-09 08:29 -43.92185 169.28650 27644 ft 327 kts 227°
2026-05-09 08:29 -43.93756 169.26363 27113 ft 327 kts 227°
2026-05-09 08:29 -43.95333 169.24077 26593 ft 327 kts 227°
2026-05-09 08:30 -43.96903 169.21789 26083 ft 326 kts 227°
2026-05-09 08:30 -43.98470 169.19514 25586 ft 325 kts 227°
2026-05-09 08:30 -44.00030 169.17245 25088 ft 324 kts 227°
2026-05-09 08:30 -44.01582 169.14980 24616 ft 324 kts 227°
2026-05-09 08:31 -44.03141 169.12709 24060 ft 325 kts 227°
2026-05-09 08:31 -44.04695 169.10443 23394 ft 321 kts 227°
2026-05-09 08:31 -44.06207 169.08231 22693 ft 318 kts 227°
2026-05-09 08:31 -44.07726 169.06014 21956 ft 316 kts 227°
2026-05-09 08:32 -44.09232 169.03813 21228 ft 312 kts 227°
2026-05-09 08:32 -44.10718 169.01634 20509 ft 309 kts 227°
2026-05-09 08:32 -44.13646 168.97343 19136 ft 302 kts 228°
2026-05-09 08:33 -44.15088 168.95227 18481 ft 301 kts 228°
2026-05-09 08:33 -44.16630 168.93267 17832 ft 301 kts 220°
2026-05-09 08:33 -44.18300 168.91586 17562 ft 287 kts 220°
2026-05-09 08:33 -44.19821 168.89976 17583 ft 265 kts 221°
2026-05-09 08:34 -44.21272 168.88470 17565 ft 253 kts 220°
2026-05-09 08:34 -44.22657 168.87047 17563 ft 242 kts 220°
2026-05-09 08:34 -44.24016 168.85642 17182 ft 246 kts 221°
2026-05-09 08:34 -44.25400 168.84207 16744 ft 251 kts 221°
2026-05-09 08:35 -44.26811 168.82735 16304 ft 256 kts 221°
2026-05-09 08:35 -44.28254 168.81245 15870 ft 259 kts 221°
2026-05-09 08:35 -44.29707 168.79738 15453 ft 262 kts 221°
2026-05-09 08:35 -44.31169 168.78220 15029 ft 261 kts 221°
2026-05-09 08:36 -44.32632 168.76707 14631 ft 262 kts 221°
2026-05-09 08:36 -44.34066 168.75216 14569 ft 251 kts 221°
2026-05-09 08:36 -44.35438 168.73792 14529 ft 239 kts 223°
2026-05-09 08:36 -44.36707 168.72484 14584 ft 219 kts 222°
2026-05-09 08:37 -44.37932 168.71200 14566 ft 222 kts 223°
2026-05-09 08:37 -44.39169 168.69894 14551 ft 229 kts 223°
2026-05-09 08:37 -44.40454 168.68559 14566 ft 233 kts 223°
2026-05-09 08:37 -44.41770 168.67209 14545 ft 230 kts 220°
2026-05-09 08:38 -44.43044 168.65882 14567 ft 229 kts 223°
2026-05-09 08:38 -44.44311 168.64522 14562 ft 230 kts 221°
2026-05-09 08:38 -44.45601 168.63211 14541 ft 228 kts 222°
2026-05-09 08:38 -44.46875 168.61863 14565 ft 234 kts 223°
2026-05-09 08:39 -44.48195 168.60472 14562 ft 240 kts 222°
2026-05-09 08:39 -44.49548 168.59067 14563 ft 243 kts 223°
2026-05-09 08:39 -44.50919 168.57629 14563 ft 249 kts 222°
2026-05-09 08:39 -44.52312 168.56170 14563 ft 250 kts 223°
2026-05-09 08:40 -44.53712 168.54702 14558 ft 253 kts 222°
2026-05-09 08:40 -44.55130 168.53228 14554 ft 255 kts 222°
2026-05-09 08:40 -44.56544 168.51740 14563 ft 254 kts 223°
2026-05-09 08:40 -44.57948 168.50257 14558 ft 256 kts 222°
2026-05-09 08:41 -44.59459 168.48915 14551 ft 261 kts 214°
2026-05-09 08:41 -44.61128 168.47869 14559 ft 265 kts 208°
2026-05-09 08:41 -44.62931 168.47177 14546 ft 272 kts 201°
2026-05-09 08:41 -44.64828 168.46843 14594 ft 278 kts 193°
2026-05-09 08:42 -44.66817 168.46921 14309 ft 296 kts 185°
2026-05-09 08:42 -44.68896 168.47488 14026 ft 313 kts 175°
2026-05-09 08:42 -44.70984 168.48608 13739 ft 330 kts 165°
2026-05-09 08:42 -44.72988 168.50303 13441 ft 341 kts 154°
2026-05-09 08:43 -44.74845 168.52429 13123 ft 335 kts 152°
2026-05-09 08:43 -44.76656 168.54400 12782 ft 323 kts 154°
2026-05-09 08:43 -44.78449 168.56290 12459 ft 321 kts 153°
2026-05-09 08:43 -44.80308 168.57853 12125 ft 304 kts 165°
2026-05-09 08:44 -44.82198 168.59201 11815 ft 307 kts 161°
2026-05-09 08:44 -44.84046 168.60780 11515 ft 311 kts 159°
2026-05-09 08:44 -44.85878 168.62273 11204 ft 309 kts 158°
2026-05-09 08:44 -44.87536 168.64307 10887 ft 323 kts 141°
2026-05-09 08:45 -44.88935 168.66827 10568 ft 332 kts 127°
2026-05-09 08:45 -44.89899 168.69825 10272 ft 339 kts 115°
2026-05-09 08:45 -44.90385 168.73105 9947 ft 344 kts 96°
2026-05-09 08:45 -44.90493 168.76486 9668 ft 346 kts 95°
2026-05-09 08:46 -44.90640 168.79888 9461 ft 346 kts 95°
2026-05-09 08:46 -44.90750 168.83238 9451 ft 338 kts 94°
2026-05-09 08:46 -44.90839 168.86535 9326 ft 338 kts 95°
2026-05-09 08:46 -44.90959 168.89866 9061 ft 341 kts 95°
2026-05-09 08:47 -44.91077 168.93185 8800 ft 338 kts 94°
2026-05-09 08:47 -44.91177 168.96486 8534 ft 334 kts 93°
2026-05-09 08:47 -44.91269 168.99739 8278 ft 330 kts 94°
2026-05-09 08:47 -44.91606 169.02885 7868 ft 320 kts 114°
2026-05-09 08:48 -44.92841 169.05346 7382 ft 304 kts 146°
2026-05-09 08:48 -44.94678 169.06622 6895 ft 289 kts 171°
2026-05-09 08:48 -44.96580 169.06718 6432 ft 261 kts 197°
2026-05-09 08:48 -44.98165 169.05887 5973 ft 234 kts 215°
2026-05-09 08:49 -44.99339 169.04463 5501 ft 216 kts 236°
2026-05-09 08:49 -45.00069 169.02674 5174 ft 206 kts 251°
2026-05-09 08:49 -45.00501 169.00847 4856 ft 185 kts 254°
2026-05-09 08:49 -45.00933 168.99184 4532 ft 178 kts 252°
2026-05-09 08:50 -45.01274 168.97558 4370 ft 167 kts 264°
2026-05-09 08:50 -45.01238 168.95930 4098 ft 166 kts 278°
2026-05-09 08:50 -45.01019 168.94378 3868 ft 148 kts 281°
2026-05-09 08:50 -45.00849 168.93027 3615 ft 134 kts 280°
2026-05-09 08:51 -45.00678 168.91754 3335 ft 131 kts 278°
2026-05-09 08:51 -45.00513 168.90487 3066 ft 134 kts 279°
2026-05-09 08:51 -45.00343 168.89362 2848 ft 96 kts 278°
2026-05-09 08:51 -45.00240 168.88426 2405 ft 100 kts 277°
2026-05-09 08:52 -45.00098 168.87490 2147 ft 92 kts 281°
2026-05-09 08:52 -45.00007 168.86614 1946 ft 89 kts 278°
2026-05-09 08:52 -44.99852 168.85746 1700 ft 95 kts 278°
2026-05-09 08:52 -44.99821 168.85083 1653 ft 107 kts 255°
2026-05-09 08:53 -45.00186 168.83775 1762 ft 105 kts 248°
2026-05-09 08:53 -45.00351 168.83147 1654 ft 104 kts 248°
2026-05-09 08:53 -45.00678 168.81688 1793 ft 142 kts 254°
2026-05-09 08:53 -45.00805 168.80927 1851 ft 99 kts 257°
2026-05-09 08:54 -45.00965 168.80034 1602 ft 96 kts 252°
2026-05-09 08:54 -45.01131 168.79041 1475 ft 116 kts 257°
2026-05-09 08:54 -45.01272 168.77985 1479 ft 105 kts 253°
2026-05-09 08:54 -45.01449 168.76993 1416 ft 104 kts 251°
2026-05-09 08:55 -45.01614 168.76006 1270 ft 100 kts 259°
2026-05-09 08:55 -45.01769 168.75038 1161 ft 41 kts 257°
2026-05-09 08:55 -45.01800 168.74849 1162 ft 26 kts 259°
2026-05-09 08:55 -45.01845 168.74559 1163 ft 32 kts 258°
2026-05-09 08:56 -45.01889 168.74284 1164 ft 24 kts 255°
2026-05-09 08:56 -45.01918 168.74138 1162 ft 12 kts 227°
2026-05-09 08:56 -45.02005 168.74080 1159 ft 15 kts 203°
2026-05-09 08:56 -45.02094 168.74077 1159 ft 12 kts 126°
2026-05-09 08:57 -45.02140 168.74169 1159 ft 10 kts 161°
2026-05-09 08:57 -45.02211 168.74202 1159 ft 12 kts 159°
2026-05-09 08:57 -45.02308 168.74241 1158 ft 1 kts 223°
2026-05-09 08:57 -45.02307 168.74231 1159 ft 0 kts 347°